Location: Hopville
(44.8032°N, 123.1329°W)
Time: 17:29:44
(UTC+00:00)

Cosmos 2098 Rocket - Pass Details

Date: 24 January 2021
Orbit: 366 x 1182 km, 82.9° (Epoch: 01 March)

Event Time Altitude Azimuth Distance (km) Brightness Sun altitude
Rises 14:51:59 0° 346° (NNW) 3,698 6.7 -8.7°
Reaches altitude 10° 14:54:51 10° 341° (NNW) 2,620 5.9 -8.2°
Maximum altitude 15:00:24 43° 272° (W) 1,091 3.9 -7.2°
Drops below altitude 10° 15:04:49 10° 202° (SSW) 2,086 5.8 -6.5°
Sets 15:06:54 0° 195° (SSW) 2,872 6.6 -6.2°
